Overview Statistics Trail Chart Weather Telemetry Raw packets
 

This is the latest recevied weather packets stored in our database for station/object HOWARD. If no packets are shown the sender has not sent any weather packets the latest 10 day(s).

<< 36 37 38 39 40 41 42 >>
Time Temp. Humidity Pressure Rain* Wind** Luminosity Snow
1788133524 10° C 54% 1017.1 hPa 0 mm - - -
1788133480 10° C 54% 1017.1 hPa 0 mm - - -
1788132880 9.44° C 56% 1017 hPa 0 mm - - -
1788132390 10° C 54% 1017.1 hPa 0 mm - - -
1788132280 10° C 54% 1017.1 hPa 0 mm - - -
1788131680 9.44° C 57% 1017.1 hPa 0 mm - - -
1788131080 9.44° C 58% 1017 hPa 0 mm - - -
1788130480 9.44° C 56% 1017.1 hPa 0 mm - - -
1788129881 10° C 56% 1017.3 hPa 0 mm - - -
1788129280 10° C 57% 1016.6 hPa 0 mm - - -
1788128680 10.56° C 57% 1016.7 hPa 0 mm - - -
1788128080 10° C 57% 1016.6 hPa 0 mm - - -
1788127480 9.44° C 59% 1016.6 hPa 0 mm - - -
1788126880 10° C 58% 1016.8 hPa 0 mm - - -
1788126280 10° C 58% 1016.8 hPa 0 mm - - -
1788125680 9.44° C 59% 1016.8 hPa 0 mm - - -
1788125080 9.44° C 59% 1016.8 hPa 0 mm - - -
1788124480 9.44° C 59% 1016.8 hPa 0 mm - - -
1788123880 9.44° C 60% 1016.8 hPa 0 mm - - -
1788123280 9.44° C 59% 1016.6 hPa 0 mm - - -
1788122680 8.89° C 60% 1016.6 hPa 0 mm - - -
1788122142 8.89° C 60% 1016.6 hPa 0 mm - - -
1788122080 8.89° C 60% 1016.6 hPa 0 mm - - -
1788121480 8.89° C 61% 1016.4 hPa 0 mm - - -
1788120880 8.33° C 63% 1016.4 hPa 0 mm - - -

* Rain latest hour (hover to see other rain measurements)
** Current wind speed in m/s (hover to see current wind gust speed)